Simultaneous Nadir Overpasses (SNOs) Predictions

Prediction of SNOs between NOAA-19 and TERRA Satellite Orbit:

Table of predicted SNOs for the next 14.0 days since TLE Epoch: 8/7/2016
Index Date (NOAA-19) Time (NOAA-19) Lat,Lon (NOAA-19) SZA (NOAA-19 ) Date (TERRA) Time (TERRA) Lat,Lon (TERRA) SZA (TERRA ) Distance(km) Time Diff (sec)
1 08/07/2016 11:21:52 74.04, 17.17 57.84 08/07/2016 11:22:36 74.08, 17.17 57.88 3.84 44
2 08/07/2016 12:12:51 -73.98,-175.43 122.21 08/07/2016 12:12:06 -73.96,-175.46 122.24 2.87 45
3 08/09/2016 16:55:54 -74.08, 113.62 121.49 08/09/2016 16:56:20 -74.07, 113.73 121.48 3.35 26
4 08/09/2016 17:46:53 73.98, -78.87 58.44 08/09/2016 17:45:47 73.99, -78.83 58.44 1.61 66
5 08/11/2016 22:29:55 74.06,-149.78 59.17 08/11/2016 22:30:02 74.04,-149.77 59.15 1.76 7
6 08/11/2016 23:20:47 -73.60, 18.62 121.24 08/11/2016 23:19:37 -73.67, 17.04 121.24 50.17 70
7 08/14/2016 03:13:03 74.43, 138.52 60.18 08/14/2016 03:14:13 74.30, 139.76 60.10 39.92 70
8 08/14/2016 04:03:57 -74.04, -53.19 120.17 08/14/2016 04:03:46 -74.03, -53.22 120.18 1.29 11
9 08/16/2016 08:46:59 -74.10,-124.05 119.42 08/16/2016 08:48:00 -74.13,-124.06 119.38 3.57 61
10 08/16/2016 09:37:57 74.04, 43.36 60.54 08/16/2016 09:37:27 74.04, 43.37 60.54 0.14 30
11 08/18/2016 14:20:59 74.13, -27.57 61.34 08/18/2016 14:21:41 74.13, -27.48 61.35 2.75 42
12 08/18/2016 15:12:00 -74.02, 139.95 118.76 08/18/2016 15:11:11 -74.02, 139.90 118.77 1.61 49
13 08/20/2016 19:55:02 -74.09, 69.07
